Location: Olsztyn
(53.7767°N, 20.4765°E)
Time: 19:51:14
(UTC+02:00)

Envisat - Pass Details

Date: 26 February 2024
Orbit: 762 x 764 km, 98.3° (Epoch: 20 April)

Event Time Altitude Azimuth Distance (km) Brightness Sun altitude
Rises 03:48:32 0° 13° (NNE) 3,246 6.7 -25.0°
Reaches altitude 10° 03:50:52 10° 10° (N) 2,315 5.8 -24.7°
Enters shadow 03:55:49 59° 295° (WNW) 882 3.0 -24.0°
